When you browse on this site, cookies collect data to enhance your experience and personalize the content and advertising you see.
Visit our Privacy Policy to learn more. By continuing to use the site, you agree to this use of cookies and data.
  • In Spain
  • List of Countries
  • For 7 days
  • Water Temperature
  • Weather Map
  • Weather Widgets
  • user-avatar
    Login

    Hourly Weather Gluhov

    Today, 7 April, Tuesday

    Time Temperature Precipitation Wind Pressure Humidity
    00:00 +4°C° 0 mm 2 mps 761 mmHg 83%
    01:00 +4°C° 0 mm 2 mps 761 mmHg 86%
    02:00 +4°C° 0 mm 2 mps 761 mmHg 88%
    03:00 +3°C° 0 mm 2 mps 762 mmHg 89%
    04:00 +3°C° 0 mm 2 mps 762 mmHg 90%
    05:00 +3°C° 0 mm 2 mps 762 mmHg 91%
    06:00 +4°C° 0 mm 2 mps 762 mmHg 85%
    07:00 +5°C° 0 mm 2 mps 762 mmHg 79%
    08:00 +6°C° 0 mm 2 mps 762 mmHg 73%
    09:00 +8°C° 0 mm 2 mps 763 mmHg 67%
    10:00 +10°C° 0 mm 1 mps 763 mmHg 61%
    11:00 +11°C° 0 mm 1 mps 763 mmHg 55%
    12:00 +12°C° 0 mm 1 mps 762 mmHg 52%
    13:00 +13°C° 0 mm 1 mps 762 mmHg 49%
    14:00 +13°C° 0 mm 1 mps 762 mmHg 47%
    15:00 +13°C° 0 mm 2 mps 762 mmHg 48%
    16:00 +13°C° 0 mm 2 mps 761 mmHg 49%
    17:00 +13°C° 0 mm 2 mps 761 mmHg 50%
    18:00 +12°C° 0 mm 2 mps 760 mmHg 54%
    19:00 +10°C° 0 mm 2 mps 760 mmHg 58%
    20:00 +9°C° 0 mm 2 mps 760 mmHg 62%
    21:00 +8°C° 0 mm 3 mps 760 mmHg 63%
    22:00 +8°C° 0 mm 3 mps 759 mmHg 64%
    23:00 +6°C° 0 mm 4 mps 759 mmHg 66%

    Tomorrow, 8 April, Wednesday

    Time Temperature Precipitation Wind Pressure Humidity
    00:00 +6°C° 0 mm 4 mps 759 mmHg 67%
    01:00 +6°C° 0 mm 4 mps 758 mmHg 67%
    02:00 +6°C° 0 mm 4 mps 758 mmHg 68%
    03:00 +5°C° 0 mm 5 mps 757 mmHg 68%
    04:00 +5°C° 0 mm 5 mps 757 mmHg 68%
    05:00 +5°C° 0 mm 5 mps 756 mmHg 68%
    06:00 +5°C° 0 mm 6 mps 755 mmHg 63%
    07:00 +7°C° 0 mm 6 mps 755 mmHg 58%
    08:00 +9°C° 0 mm 7 mps 754 mmHg 53%
    09:00 +10°C° 0 mm 7 mps 754 mmHg 52%
    10:00 +11°C° 0 mm 7 mps 754 mmHg 51%
    11:00 +14°C° 0 mm 7 mps 753 mmHg 50%
    12:00 +14°C° 0 mm 7 mps 753 mmHg 50%
    13:00 +14°C° 0 mm 7 mps 753 mmHg 50%
    14:00 +14°C° 0 mm 7 mps 753 mmHg 49%
    15:00 +14°C° 0 mm 6 mps 753 mmHg 52%
    16:00 +13°C° 0 mm 5 mps 753 mmHg 56%
    17:00 +12°C° 0 mm 5 mps 753 mmHg 59%
    18:00 +11°C° 0 mm 4 mps 753 mmHg 64%
    19:00 +9°C° 0 mm 3 mps 753 mmHg 69%
    20:00 +8°C° 0 mm 3 mps 753 mmHg 74%
    21:00 +8°C° 0 mm 2 mps 753 mmHg 76%
    22:00 +7°C° 0 mm 2 mps 753 mmHg 79%
    23:00 +6°C° 0 mm 2 mps 753 mmHg 81%

    Day after tomorrow, 9 April, Thursday

    Time Temperature Precipitation Wind Pressure Humidity
    00:00 +6°C° 0 mm 2 mps 753 mmHg 82%
    01:00 +6°C° 0 mm 2 mps 753 mmHg 83%
    02:00 +6°C° 0 mm 1 mps 752 mmHg 84%
    03:00 +6°C° 0 mm 1 mps 752 mmHg 85%
    04:00 +6°C° 0 mm 1 mps 752 mmHg 86%
    05:00 +5°C° 0 mm 1 mps 752 mmHg 86%
    06:00 +7°C° 0 mm 1 mps 752 mmHg 80%
    07:00 +7°C° 0 mm 2 mps 752 mmHg 74%
    08:00 +9°C° 0 mm 2 mps 752 mmHg 67%
    09:00 +10°C° 0 mm 2 mps 751 mmHg 61%
    10:00 +12°C° 0 mm 2 mps 751 mmHg 54%
    11:00 +13°C° 0 mm 3 mps 751 mmHg 47%
    12:00 +13°C° 0 mm 3 mps 750 mmHg 44%
    13:00 +14°C° 0 mm 3 mps 750 mmHg 41%
    14:00 +16°C° 0 mm 3 mps 749 mmHg 38%
    15:00 +16°C° 0 mm 3 mps 749 mmHg 41%
    16:00 +16°C° 0 mm 3 mps 748 mmHg 43%
    17:00 +16°C° 0 mm 3 mps 748 mmHg 45%
    18:00 +13°C° 0 mm 3 mps 747 mmHg 50%
    19:00 +12°C° 0 mm 3 mps 747 mmHg 55%
    20:00 +11°C° 0 mm 3 mps 747 mmHg 60%
    21:00 +11°C° 0 mm 3 mps 746 mmHg 59%
    22:00 +11°C° 0 mm 3 mps 746 mmHg 59%
    23:00 +11°C° 0 mm 3 mps 745 mmHg 59%

    10 April, Friday

    Time Temperature Precipitation Wind Pressure Humidity
    00:00 +11°C° 0 mm 3 mps 745 mmHg 60%
    01:00 +10°C° 0 mm 3 mps 744 mmHg 61%
    02:00 +10°C° 0 mm 4 mps 744 mmHg 63%
    03:00 +10°C° 0 mm 3 mps 744 mmHg 69%
    04:00 +9°C° 0 mm 3 mps 743 mmHg 75%
    05:00 +8°C° 0 mm 3 mps 743 mmHg 81%
    06:00 +9°C° 0 mm 3 mps 743 mmHg 80%
    07:00 +9°C° 0 mm 3 mps 743 mmHg 79%
    08:00 +10°C° 0 mm 3 mps 743 mmHg 78%
    09:00 +10°C° 0.4 mm 3 mps 743 mmHg 78%
    10:00 +10°C° 0.4 mm 4 mps 743 mmHg 78%
    11:00 +10°C° 0.4 mm 4 mps 743 mmHg 78%
    12:00 +11°C° 0.3 mm 4 mps 743 mmHg 73%
    13:00 +10°C° 0.3 mm 5 mps 744 mmHg 67%
    14:00 +10°C° 0.3 mm 6 mps 744 mmHg 62%
    15:00 +10°C° 0 mm 6 mps 744 mmHg 60%
    16:00 +9°C° 0 mm 6 mps 744 mmHg 57%
    17:00 +8°C° 0 mm 6 mps 744 mmHg 55%
    18:00 +7°C° 0 mm 6 mps 745 mmHg 57%
    19:00 +6°C° 0 mm 5 mps 745 mmHg 60%
    20:00 +5°C° 0 mm 5 mps 746 mmHg 63%
    21:00 +3°C° 0 mm 5 mps 746 mmHg 64%
    22:00 +3°C° 0 mm 5 mps 746 mmHg 65%
    23:00 +2°C° 0 mm 5 mps 747 mmHg 67%

    11 April, Saturday

    Time Temperature Precipitation Wind Pressure Humidity
    00:00 +1°C° 0 mm 4 mps 747 mmHg 68%
    01:00 +1°C° 0 mm 4 mps 747 mmHg 70%
    02:00 0°C° 0 mm 4 mps 747 mmHg 71%
    03:00 0°C° 0 mm 4 mps 747 mmHg 72%
    04:00 -1°C° 0 mm 4 mps 748 mmHg 74%
    05:00 -1°C° 0 mm 4 mps 748 mmHg 75%
    06:00 0°C° 0 mm 4 mps 748 mmHg 71%
    07:00 +1°C° 0 mm 5 mps 748 mmHg 67%
    08:00 +2°C° 0 mm 5 mps 749 mmHg 63%
    09:00 +3°C° 0 mm 5 mps 749 mmHg 58%
    10:00 +4°C° 0 mm 6 mps 749 mmHg 54%
    11:00 +5°C° 0 mm 6 mps 749 mmHg 50%
    12:00 +5°C° 0 mm 6 mps 750 mmHg 49%
    13:00 +5°C° 0 mm 6 mps 750 mmHg 47%
    14:00 +7°C° 0 mm 6 mps 750 mmHg 46%
    15:00 +5°C° 0 mm 6 mps 750 mmHg 45%
    16:00 +5°C° 0 mm 6 mps 750 mmHg 45%
    17:00 +6°C° 0 mm 5 mps 750 mmHg 44%
    18:00 +5°C° 0 mm 4 mps 751 mmHg 49%
    19:00 +3°C° 0 mm 4 mps 751 mmHg 53%
    20:00 +2°C° 0 mm 3 mps 752 mmHg 58%
    21:00 +2°C° 0 mm 3 mps 752 mmHg 60%
    22:00 +2°C° 0 mm 2 mps 752 mmHg 62%
    23:00 +2°C° 0 mm 2 mps 752 mmHg 63%

    12 April, Sunday

    Time Temperature Precipitation Wind Pressure Humidity
    00:00 +1°C° 0 mm 2 mps 753 mmHg 64%
    01:00 +1°C° 0 mm 2 mps 753 mmHg 64%
    02:00 -1°C° 0 mm 2 mps 753 mmHg 64%
    03:00 -1°C° 0 mm 2 mps 753 mmHg 64%
    04:00 -1°C° 0 mm 2 mps 753 mmHg 64%
    05:00 +1°C° 0 mm 1 mps 753 mmHg 64%
    06:00 +1°C° 0 mm 2 mps 753 mmHg 58%
    07:00 +3°C° 0 mm 2 mps 753 mmHg 51%
    08:00 +5°C° 0 mm 2 mps 754 mmHg 45%
    09:00 +6°C° 0 mm 2 mps 754 mmHg 40%
    10:00 +7°C° 0 mm 2 mps 754 mmHg 36%
    11:00 +8°C° 0 mm 2 mps 753 mmHg 32%
    12:00 +8°C° 0 mm 2 mps 753 mmHg 31%
    13:00 +9°C° 0 mm 2 mps 753 mmHg 31%
    14:00 +9°C° 0 mm 2 mps 753 mmHg 30%
    15:00 +9°C° 0 mm 2 mps 753 mmHg 31%
    16:00 +9°C° 0 mm 2 mps 752 mmHg 32%
    17:00 +10°C° 0 mm 1 mps 752 mmHg 33%
    18:00 +8°C° 0 mm 2 mps 752 mmHg 37%
    19:00 +6°C° 0 mm 2 mps 752 mmHg 41%
    20:00 +5°C° 0 mm 2 mps 752 mmHg 46%
    21:00 +4°C° 0 mm 2 mps 752 mmHg 46%
    22:00 +4°C° 0 mm 2 mps 752 mmHg 46%
    23:00 +4°C° 0 mm 2 mps 752 mmHg 46%
    Show more